Location: Unspecified
(64.9000°N, 0.0000°E)
Time: 12:47:32
(UTC+00:00)

Transit 2A Rocket - Pass Details

Date: 22 June 2019
Orbit: 590 x 913 km, 66.7° (Epoch: 16 August)

Event Time Altitude Azimuth Distance (km) Brightness Sun altitude
Rises 17:23:10 0° 301° (WNW) 3,437 9.3 25.2°
Reaches altitude 10° 17:25:46 10° 297° (WNW) 2,456 8.9 24.9°
Maximum altitude 17:31:16 54° 222° (SW) 947 6.3 24.3°
Drops below altitude 10° 17:36:15 10° 146° (SE) 2,235 7.1 23.8°
Sets 17:38:32 0° 142° (SE) 3,103 7.8 23.6°
